Time_in_sec,Mx,My,Mz
1314365037.96949339,0.55590838,0.16461042,-0.42405036
1314365038.02468109,0.55357116,0.16296220,-0.42403847
1314365038.06550694,0.55286741,0.16469398,-0.42856476
1314365038.11350131,0.55496502,0.16320188,-0.42382360
1314365038.16552377,0.55494118,0.16410665,-0.42410287
1314365038.21762061,0.55567414,0.16514474,-0.42555878
1314365038.26549506,0.55613363,0.16464213,-0.42715445
1314365038.31254077,0.55439609,0.16259302,-0.42642701
1314365038.36550498,0.55509782,0.16235110,-0.42855266
1314365038.41268396,0.55765378,0.16436817,-0.42719939
1314365038.46453810,0.55715650,0.16413139,-0.42858174
1314365038.51345038,0.55714786,0.16390079,-0.43101990
1314365038.56463361,0.55718207,0.16273685,-0.43060252
1314365038.61258578,0.55780911,0.16353802,-0.43382457
1314365038.66548419,0.56009120,0.16275342,-0.43504095
1314365038.71261787,0.55990899,0.16507818,-0.43547574
1314365038.76548672,0.56220376,0.16298017,-0.43437755
1314365038.81352711,0.55932903,0.16508947,-0.43591616
1314365038.86563230,0.56074560,0.16352440,-0.43555075
1314365038.91376209,0.56004655,0.16211897,-0.43585187
1314365038.96563888,0.56072623,0.16332084,-0.44042909
1314365039.01261497,0.56224674,0.16430785,-0.43804416
1314365039.06546855,0.56124717,0.16653584,-0.44055864
1314365039.11302209,0.56127751,0.16406167,-0.43809876
1314365039.16930842,0.56091166,0.16163847,-0.43986347
1314365039.22556281,0.55919498,0.16318616,-0.43834892
1314365039.26854730,0.56069022,0.16291697,-0.43880188
1314365039.31350374,0.56112206,0.16200891,-0.43863434
1314365039.36460853,0.56354743,0.16299723,-0.43728086
1314365039.41351581,0.56148863,0.16509993,-0.43904296
1314365039.46555877,0.56007284,0.16242105,-0.43991825
1314365039.51672029,0.56174713,0.16512527,-0.44160300
1314365039.56949687,0.55911011,0.16060548,-0.43779224
1314365039.61352539,0.56151903,0.16365455,-0.43645534
1314365039.66555023,0.56056917,0.16381542,-0.43840918
1314365039.71344686,0.56059623,0.16561063,-0.43774360
1314365039.76559114,0.56037951,0.16292660,-0.43936214
1314365039.81262064,0.55783021,0.16345529,-0.43802387
1314365039.86555982,0.56282502,0.16478631,-0.43530369
1314365039.91253877,0.55854821,0.16277455,-0.43540201
1314365039.96950793,0.56123596,0.16386616,-0.43200123
1314365040.01345038,0.55981797,0.16532786,-0.43466979
1314365040.07259798,0.55912429,0.16145304,-0.43291906
1314365040.11344719,0.55862957,0.16324840,-0.43174177
1314365040.16860700,0.55776983,0.15940541,-0.43271139
1314365040.21261024,0.55843550,0.16449672,-0.42796797
1314365040.27152920,0.55768454,0.16335844,-0.42908725
1314365040.31259441,0.55840826,0.16658449,-0.43042472
1314365040.36461616,0.55669892,0.16129003,-0.42736721
1314365040.41357160,0.55494183,0.16374567,-0.42640397
1314365040.46470523,0.55684555,0.16679174,-0.42428336
1314365040.51350617,0.55610245,0.16418743,-0.42091888
1314365040.56464601,0.55486912,0.16329893,-0.42084846
1314365040.61259794,0.55519247,0.16585889,-0.41976485
1314365040.66572428,0.55455238,0.16716772,-0.42103171
1314365040.71262527,0.55392212,0.16572414,-0.41794050
1314365040.76961136,0.55434251,0.16417526,-0.41803980
1314365040.82464290,0.55399716,0.16388442,-0.41466969
1314365040.86465311,0.55307186,0.16463366,-0.41161227
1314365040.91346884,0.55217868,0.16365121,-0.41504487
1314365040.96457791,0.55386049,0.16465724,-0.41454798
1314365041.01422691,0.55141920,0.16516525,-0.41144150
1314365041.06354237,0.55215627,0.16465937,-0.41302100
1314365041.11259317,0.55165631,0.16709872,-0.41184890
1314365041.16455197,0.55100524,0.16308714,-0.40941706
1314365041.21330404,0.55030119,0.16644086,-0.40921241
1314365041.26564956,0.54990971,0.16335461,-0.40921184
1314365041.31348395,0.54872417,0.16374296,-0.40819967
1314365041.36564612,0.54915535,0.16422465,-0.40560329
1314365041.41258597,0.55066621,0.16510987,-0.40565753
1314365041.46549392,0.55287063,0.16884114,-0.40759024
1314365041.51362753,0.55272377,0.16496137,-0.40594316
1314365041.56951189,0.54939336,0.16191417,-0.40652058
1314365041.61350369,0.54896671,0.16320704,-0.40655524
1314365041.66452885,0.55090976,0.16341637,-0.40413979
1314365041.71345472,0.55008107,0.16576517,-0.40610313
1314365041.76455188,0.55408442,0.16623621,-0.40614459
1314365041.81252599,0.54998082,0.16717403,-0.40530652
1314365041.86551523,0.54995960,0.16540264,-0.40814027
1314365041.91255856,0.54923713,0.16616294,-0.40629083
1314365041.96454048,0.54976404,0.16346121,-0.40705279
1314365042.01652598,0.54938143,0.16677828,-0.40384769
1314365042.06451273,0.55031943,0.16471565,-0.40459058
1314365042.11344123,0.54983878,0.16447568,-0.40570092
1314365042.16464949,0.54895467,0.16498479,-0.40426552
1314365042.21358252,0.54957795,0.16550454,-0.40531734
1314365042.26830840,0.54922771,0.16526455,-0.40655559
1314365042.31346655,0.54923326,0.16485272,-0.40424830
1314365042.36947155,0.54991907,0.16404955,-0.40216947
1314365042.42543721,0.54974926,0.16688631,-0.40233636
1314365042.46453953,0.55032992,0.16651404,-0.40419701
1314365042.51243258,0.54773307,0.16291170,-0.40188161
1314365042.56550384,0.54764479,0.16254282,-0.40337467
1314365042.61350965,0.54865468,0.16496740,-0.40238556
1314365042.66547704,0.54949623,0.16459505,-0.40450209
1314365042.71357322,0.55080307,0.16845220,-0.40526831
1314365042.76460934,0.54825467,0.16473694,-0.40443996
1314365042.82557225,0.54668051,0.16450685,-0.40534300
1314365042.86575699,0.54876167,0.16630778,-0.40726826
1314365042.91314793,0.54946643,0.16341841,-0.40286866
1314365042.96447682,0.55037934,0.16524352,-0.40581077
1314365043.01255941,0.54873919,0.16628712,-0.40537211
1314365043.06287766,0.55020744,0.16628031,-0.40623519
1314365043.11259151,0.54790580,0.16460031,-0.40337506
1314365043.16950631,0.54860759,0.16435839,-0.40550068
1314365043.21350312,0.55087143,0.16612430,-0.40443358
1314365043.26555347,0.54759812,0.16319476,-0.40405995
1314365043.31343889,0.54914403,0.16564143,-0.40561467
1314365043.36542368,0.54741687,0.16436194,-0.40462142
1314365043.41271138,0.54927021,0.16409899,-0.40600222
1314365043.46562958,0.54953432,0.16474131,-0.40612721
1314365043.51249886,0.55110097,0.16769840,-0.40727806
1314365043.56948304,0.55061048,0.16509560,-0.40430546
1314365043.61349916,0.54935199,0.16603729,-0.40668973
1314365043.66551352,0.54826993,0.16565917,-0.40634334
1314365043.71340466,0.54832798,0.16461924,-0.40551895
1314365043.76389718,0.54955781,0.16360436,-0.40815008
1314365043.81251907,0.54953218,0.16397011,-0.40625703
1314365043.86947083,0.55288827,0.16768037,-0.40744489
1314365043.91252494,0.55044889,0.16484441,-0.40471953
1314365043.96548438,0.54922020,0.16696274,-0.40873724
1314365044.02547574,0.54985166,0.16542333,-0.40990850
1314365044.06454182,0.54924744,0.16487497,-0.40628046
1314365044.11346841,0.55003011,0.16384593,-0.40717575
1314365044.16452336,0.55087411,0.16344815,-0.40698805
1314365044.21251059,0.55110443,0.16774765,-0.41175044
1314365044.26548219,0.55253458,0.16656578,-0.41111612
1314365044.31348968,0.55021340,0.16753639,-0.41505325
1314365044.36421013,0.55015194,0.16361530,-0.40974179
1314365044.41337657,0.55025363,0.16333862,-0.40810752
1314365044.46446872,0.55148011,0.16556433,-0.41266066
1314365044.51344919,0.55120510,0.16657096,-0.41024494
1314365044.56551790,0.55116838,0.16673155,-0.41309422
1314365044.61349964,0.55165106,0.16568513,-0.41210955
1314365044.66547608,0.55175388,0.16651189,-0.41712409
1314365044.71262097,0.55227637,0.16594729,-0.41315928
1314365044.76549077,0.55213654,0.16504894,-0.41329613
1314365044.82552171,0.55388790,0.16668463,-0.41158029
1314365044.86245966,0.55153203,0.16529718,-0.41184250
1314365044.91346502,0.55222088,0.16328229,-0.41666588
1314365044.96553397,0.55158865,0.16312508,-0.41344899
1314365045.01338387,0.55086619,0.16388538,-0.41159955
1314365045.06545711,0.55243099,0.16424587,-0.41083354
1314365045.11262512,0.55197078,0.16531293,-0.41371435
1314365045.16445923,0.55115724,0.16426533,-0.41131443
1314365045.22452545,0.55089432,0.16658059,-0.41080520
1314365045.26330709,0.55170780,0.16557062,-0.41346058
1314365045.31346893,0.55049276,0.16295691,-0.40876833
1314365045.36535048,0.55103332,0.16475356,-0.40875044
1314365045.41652608,0.54996133,0.16491286,-0.41044033
1314365045.46552420,0.55228531,0.16538127,-0.40854675
1314365045.51340985,0.55233788,0.16475315,-0.41002968
1314365045.56357193,0.55042839,0.16271205,-0.40985438
1314365045.62454724,0.55130535,0.16516210,-0.41104156
1314365045.66448426,0.55043429,0.16376467,-0.41189483
1314365045.71332312,0.55195314,0.16441612,-0.41411516
1314365045.76382518,0.55248463,0.16451775,-0.41218767
1314365045.81346941,0.55239308,0.16738945,-0.41560277
1314365045.86825633,0.55318528,0.16337584,-0.41444209
1314365045.91347384,0.55502427,0.16594484,-0.41570964
1314365045.96850491,0.55340195,0.16400227,-0.41307899
1314365046.02671218,0.55503297,0.16720423,-0.41314378
1314365046.06441689,0.55567867,0.16671585,-0.41621947
1314365046.11346054,0.55424762,0.16311473,-0.41519135
1314365046.16533518,0.55348390,0.16226105,-0.41875291
1314365046.21337771,0.55384010,0.16561125,-0.41929963
1314365046.26830697,0.55592680,0.16700037,-0.41891760
1314365046.31332159,0.55626023,0.16415720,-0.41833454
1314365046.36454344,0.55392313,0.16456655,-0.41806719
1314365046.41344738,0.55638003,0.16521296,-0.42077494
1314365046.46865749,0.55413973,0.16416420,-0.41683185
1314365046.51347041,0.55558819,0.16351818,-0.41809779
1314365046.56463957,0.55596989,0.16341627,-0.42092076
1314365046.61659169,0.55618662,0.16507150,-0.41942993
1314365046.66845894,0.55428505,0.16382544,-0.42129302
1314365046.71250343,0.55598116,0.16691127,-0.42257282
1314365046.76852036,0.55643332,0.16504918,-0.41765362
1314365046.81284881,0.55520380,0.16444212,-0.41975343
1314365046.86462879,0.55534977,0.16251011,-0.41986585
1314365046.91261005,0.55530626,0.16483325,-0.42029253
1314365046.96551824,0.55554432,0.16458035,-0.42095435
1314365047.01260662,0.55491525,0.16526902,-0.42438424
1314365047.06548738,0.55683166,0.16597289,-0.42007679
1314365047.11260009,0.55497777,0.16291727,-0.42138132
1314365047.16529179,0.55597812,0.16238590,-0.42091247
1314365047.22526717,0.55664545,0.16595864,-0.41859680
1314365047.26552200,0.55671984,0.16468336,-0.41980252
1314365047.31299853,0.55514628,0.16203471,-0.42326212
1314365047.36542392,0.55583495,0.16369933,-0.42309910
1314365047.41349316,0.55630630,0.16406968,-0.42212579
1314365047.46549916,0.55657482,0.16442898,-0.41994455
1314365047.51344395,0.55855536,0.16740659,-0.42337531
1314365047.56454277,0.55554736,0.16316517,-0.42107898
1314365047.62540483,0.55588067,0.16420497,-0.42228714
1314365047.66550899,0.55643129,0.16653904,-0.42430556
1314365047.71347451,0.55783057,0.16430934,-0.42203882
1314365047.76459265,0.55637991,0.16315538,-0.42103040
1314365047.81327391,0.55656230,0.16391698,-0.42021242
1314365047.86546397,0.55904114,0.16700257,-0.42225978
1314365047.91259265,0.55734408,0.16507432,-0.42085329
1314365047.96551895,0.55602247,0.16278815,-0.42240366
1314365048.01253390,0.55874693,0.16495144,-0.42280346
1314365048.06859493,0.55440092,0.16254219,-0.42181864
1314365048.11344838,0.55702645,0.16518892,-0.41924638
1314365048.16577911,0.55496395,0.16333069,-0.42382464
1314365048.21423435,0.55730432,0.16562130,-0.42370567
1314365048.26553488,0.55695093,0.16371010,-0.42520252
1314365048.31426764,0.55783439,0.16459076,-0.42420909
1314365048.36545777,0.55761087,0.16406928,-0.42340502
1314365048.41360807,0.55699694,0.16341913,-0.42221618
1314365048.46536231,0.55745310,0.16512831,-0.42586163
1314365048.51346469,0.55896217,0.16444571,-0.42387128
1314365048.56463194,0.55654699,0.16114064,-0.42534211
1314365048.61269784,0.55641353,0.16358465,-0.42496181
1314365048.66882920,0.55812031,0.16664349,-0.42380142
1314365048.71335220,0.55801082,0.16327095,-0.42147839
1314365048.76456618,0.55729604,0.16562289,-0.42384169
1314365048.81261802,0.55662912,0.16433989,-0.42359978
1314365048.86454511,0.55740386,0.16251583,-0.42245668
1314365048.91347528,0.55515736,0.16244334,-0.42529738
1314365048.96555257,0.55668527,0.16561514,-0.42252198
1314365049.01351357,0.55789804,0.16416781,-0.42094967
1314365049.06550622,0.55539894,0.16409379,-0.42339849
1314365049.11247706,0.55686706,0.16796997,-0.42605278
1314365049.16852379,0.55552351,0.16304114,-0.42148599
1314365049.21347618,0.55628657,0.16445926,-0.42240095
1314365049.26453161,0.55650628,0.16367052,-0.42116249
1314365049.31344748,0.55756789,0.16377039,-0.41961068
1314365049.36447215,0.55641568,0.16518116,-0.41792670
1314365049.41349959,0.55780149,0.16380051,-0.42257875
1314365049.46546412,0.55566621,0.16640730,-0.42326495
1314365049.51351500,0.55783165,0.16520932,-0.42191008
1314365049.56459284,0.55550832,0.16417649,-0.41932714
1314365049.61351418,0.55844420,0.16658142,-0.41849676
1314365049.66846752,0.55621696,0.16362613,-0.41684231
1314365049.71345830,0.55564576,0.16510028,-0.42149445
1314365049.76547790,0.55636448,0.16508734,-0.42104596
1314365049.81549263,0.55713922,0.16532086,-0.41964740
1314365049.86567712,0.55557233,0.16418917,-0.42054319
1314365049.91349840,0.55701578,0.16727351,-0.42143112
1314365049.96450019,0.55702126,0.16583291,-0.41925156
1314365050.01347995,0.55575168,0.16636597,-0.41960058
1314365050.06454015,0.55297941,0.16292584,-0.42014256
1314365050.11345935,0.55547649,0.16428623,-0.41756806
1314365050.16553998,0.55487782,0.16455831,-0.41828257
1314365050.21621418,0.55484706,0.16556805,-0.41639471
1314365050.26595831,0.55794287,0.16788861,-0.41975555
1314365050.31268120,0.55586475,0.16467251,-0.41795492
1314365050.36454844,0.55410540,0.16327058,-0.41750467
1314365050.41348171,0.55436713,0.16496710,-0.41980615
1314365050.46626973,0.55430859,0.16454260,-0.41628280
1314365050.51346946,0.55481631,0.16554900,-0.41463459
1314365050.56452560,0.55488509,0.16468552,-0.41814759
1314365050.61328697,0.55669641,0.16787788,-0.41752419
1314365050.66856980,0.55356050,0.16484332,-0.41944563
1314365050.71439624,0.55646592,0.16663605,-0.42145833
1314365050.76852059,0.55563396,0.16505261,-0.41715813
1314365050.82561612,0.55488652,0.16478890,-0.41584444
1314365050.86549711,0.55463743,0.16586542,-0.41979721
1314365050.91346407,0.55633807,0.16375647,-0.41710728
1314365050.96562934,0.55519372,0.16287591,-0.41784486
1314365051.01260161,0.55479795,0.16521662,-0.41951191
1314365051.06548095,0.55718505,0.16788408,-0.41857997
1314365051.11350465,0.55563802,0.16350864,-0.41728172
1314365051.16717124,0.55454075,0.16426587,-0.41477644
1314365051.21347570,0.55617112,0.16700347,-0.41944546
1314365051.26453018,0.55387467,0.16467948,-0.41658014
1314365051.31347919,0.55460137,0.16443278,-0.41829774
1314365051.36475682,0.55505013,0.16375370,-0.41555601
1314365051.41327906,0.55454218,0.16539803,-0.41234556
1314365051.46674442,0.55427790,0.16658112,-0.41426721
1314365051.51326680,0.55627912,0.16801158,-0.41754952
1314365051.56957173,0.55238593,0.16235048,-0.41407430
1314365051.61348867,0.55257988,0.16581047,-0.41273400
1314365051.66452885,0.55265659,0.16450976,-0.41163552
1314365051.71344852,0.55387849,0.16475743,-0.41197279
1314365051.76552653,0.55194139,0.16539726,-0.40965107
1314365051.81325603,0.55216706,0.16668993,-0.41032532
1314365051.86370587,0.55273533,0.16786322,-0.41219842
1314365051.91260171,0.54958856,0.16362342,-0.40991017
1314365051.96452832,0.55178392,0.16565967,-0.40993327
1314365052.02510428,0.55324012,0.16640182,-0.40863439
1314365052.06549478,0.55024225,0.16372660,-0.40824664
1314365052.11369538,0.55168152,0.16526854,-0.40939420
1314365052.16462827,0.55013674,0.16475065,-0.40758294
1314365052.21357155,0.55049324,0.16627546,-0.40608299
1314365052.26552963,0.54851693,0.16401492,-0.40929797
1314365052.31279421,0.55224180,0.16667561,-0.40910119
1314365052.36951065,0.55107307,0.16317779,-0.40602577
1314365052.41352105,0.55188918,0.16625755,-0.40586606
1314365052.46553612,0.55075800,0.16655681,-0.40850908
1314365052.51346850,0.55061293,0.16527364,-0.40877885
1314365052.56549978,0.55148631,0.16458808,-0.40587687
1314365052.61364698,0.54988825,0.16320516,-0.40731466
1314365052.66675282,0.55275118,0.16719222,-0.40975302
1314365052.71319675,0.55179882,0.16614626,-0.40736118
1314365052.76851702,0.55034095,0.16486509,-0.40648776
1314365052.81348586,0.55175728,0.16512543,-0.40816900
1314365052.86517859,0.55007541,0.16206183,-0.40892136
1314365052.91307521,0.55244344,0.16475788,-0.41056564
1314365052.96546817,0.55245656,0.16388012,-0.41272658
1314365053.01252031,0.55250645,0.16489936,-0.41178274
1314365053.06548500,0.55287147,0.16377185,-0.41500545
1314365053.11347055,0.55570841,0.16583490,-0.41810834
1314365053.16465330,0.55374861,0.16233893,-0.41440141
1314365053.21351314,0.55435610,0.16661605,-0.41751543
1314365053.26562071,0.55328321,0.16302118,-0.41741514
1314365053.31356716,0.55706066,0.16485029,-0.41192371
1314365053.36522031,0.55299050,0.16415980,-0.41527247
1314365053.41321158,0.55411488,0.16519777,-0.41711217
1314365053.46549344,0.55428344,0.16637278,-0.41873750
1314365053.51361370,0.55203688,0.16506803,-0.41492835
1314365053.56850314,0.55295354,0.16491354,-0.41351858
1314365053.61306667,0.55434942,0.16489562,-0.41330162
1314365053.66561389,0.55040205,0.16158466,-0.41269332
1314365053.71347618,0.55216807,0.16656113,-0.41032431
1314365053.76452947,0.55057102,0.16402063,-0.41188881
1314365053.81319070,0.55303937,0.16510437,-0.40755209
1314365053.86550927,0.55035585,0.16555515,-0.41069326
1314365053.91313744,0.55258030,0.16810021,-0.41017643
1314365053.96587229,0.55019766,0.16412094,-0.40892982
1314365054.01346326,0.54933715,0.16657948,-0.40913409
1314365054.06461430,0.55022383,0.16216198,-0.40647408
1314365054.11344981,0.54978478,0.16397163,-0.40664890
1314365054.16455030,0.54950076,0.16554429,-0.40884569
1314365054.21361542,0.55008662,0.16555682,-0.41057342
1314365054.26549363,0.55328840,0.17079373,-0.39822972
1314365054.31270289,0.55234396,0.16151585,-0.39672372
1314365054.36466312,0.54914385,0.16255505,-0.40599787
1314365054.41254759,0.55072916,0.16422257,-0.40700236
1314365054.46447921,0.55033332,0.16553450,-0.40879712
1314365054.51346374,0.55140120,0.16486159,-0.40723911
1314365054.56505036,0.55171251,0.16243340,-0.40923539
1314365054.61302304,0.55124336,0.16386303,-0.40995115
1314365054.66589880,0.55177110,0.16491549,-0.41250327
1314365054.71632099,0.55349416,0.16671017,-0.41350070
1314365054.76505136,0.55355525,0.16425505,-0.41280094
1314365054.81344509,0.55382138,0.16463977,-0.41292387
1314365054.86502361,0.55362517,0.16429158,-0.41618517
1314365054.91347575,0.55505639,0.16503850,-0.41529435
1314365054.96461940,0.55401307,0.16444567,-0.41887417
1314365055.01352262,0.55649108,0.16480587,-0.41900364
1314365055.06589270,0.55695176,0.16623203,-0.42034280
1314365055.11361575,0.55462182,0.16471101,-0.42019594
1314365055.16948533,0.55631244,0.16329689,-0.42211959
1314365055.22461748,0.55520236,0.16330996,-0.42218432
1314365055.26562071,0.55690700,0.16456880,-0.42128146
1314365055.31344891,0.55693465,0.16291668,-0.42330015
1314365055.36452818,0.55577469,0.16293927,-0.42418101
1314365055.41362309,0.55804712,0.16287820,-0.42093122
1314365055.46791005,0.55806100,0.16369705,-0.42513776
1314365055.51362777,0.55892348,0.16692148,-0.42646718
1314365055.56949496,0.55670166,0.16149679,-0.42276087
1314365055.61301446,0.55725229,0.16280207,-0.42490703
1314365055.66562533,0.55828387,0.16355070,-0.42376846
1314365055.71349454,0.55758047,0.16551466,-0.42599264
1314365055.77347374,0.56077462,0.16259751,-0.42158338
1314365055.81249976,0.55764085,0.16239172,-0.42311954
